Regional Weather Roundup
Issued by NWS

Home | Current Version | Previous Version | Graphics & Text | Print | Product List | Glossary On
Versions: 1 2 3 4 5 6 7 8 9 10 11 12 13 14 15 16 17 18 19 20 21 22 23 24 25 26 27 28 29 30 31 32 33 34 35 36 37 38 39 40 41 42 43 44 45 46 47 48 49 50
000
ASUS43 KDTX 251610
RWRMI
MICHIGAN HOURLY REGIONAL WEATHER ROUNDUP
NATIONAL WEATHER SERVICE DETROIT/PONTIAC MI
1100 AM EST TUE NOV 25 2014

NOTE: "FAIR" INDICATES FEW OR NO CLOUDS BELOW 12,000 FEET WITH NO
SIGNIFICANT WEATHER AND/OR OBSTRUCTION TO VISIBILITY.

MIZ047>049-052>055-059>063-066>070-074>076-081>083-251700-
SOUTHEAST LOWER MICHIGAN

CITY           SKY/WX    TMP DP  RH WIND       PRES   REMARKS
ADRIAN         CLOUDY    30  23  75 W14       30.01R
ALMA           FLURRIES  31  27  86 W14       29.92R
ANN ARBOR      CLOUDY    31  21  66 W17       29.98R
BAD AXE        CLOUDY    31  28  85 SW16G24   29.87R
DETROIT CITY   CLOUDY    33  23  66 W18G25    29.98R
DETROIT        CLOUDY    31  24  75 SW18      30.00R
FLINT          CLOUDY    32  25  75 W16G24    29.93R
GROSSE ILE     CLOUDY    32  27  80 W15G23    29.99R
HILLSDALE      CLOUDY    28  24  84 W9G17     29.99R
HOWELL         CLOUDY    30  23  75 SW16G23   29.95R

CITY           SKY/WX    TMP DP  RH WIND       PRES   REMARKS
JACKSON        CLOUDY    28  21  75 W12G21    29.98R
LAMBERTVILLE   CLOUDY    32  27  80 W14G23    30.02R
LANSING        LGTSLEET  30  24  78 SW16G26   29.95R
LAPEER         NOT AVBL
MASON          CLOUDY    30  23  76 W10G21    29.96R
MONROE         CLOUDY    32  27  80 SW21      29.99R
MT. CLEMENS    CLOUDY    31  26  80 SW15      29.94R
PONTIAC        CLOUDY    30  21  69 W15       29.93R
PORT HOPE        N/A     33  24  69 W10G21    29.83R
PORT HURON     CLOUDY    32  25  74 SW8       29.95R
TRI CITIES     CLOUDY    33  25  72 W18G26    29.90R
YPSILANTI      CLOUDY    34  22  61 W16       29.99R
$$
MIZ043>046-050>051-056>058-064>065-071>073-077>080-251700-
SOUTHWEST LOWER MICHIGAN

CITY           SKY/WX    TMP DP  RH WIND       PRES   REMARKS
BATTLE CREEK   CLOUDY    28  22  78 SW15      29.99R
BENTON HARBOR  CLOUDY    28  22  78 W16       30.04R
BIG RAPIDS     LGT SNOW  30  28  90 W13G18    29.90R
COLDWATER      CLOUDY    29  23  78 W10G20    30.01R
HOLLAND        LGT SNOW  32  25  75 W13G24    29.99R
GRAND RAPIDS   LGT SNOW  29  26  89 W14       29.96R FOG
KALAMAZOO      CLOUDY    28  24  85 SW10      30.00R FOG
MARSHALL       CLOUDY    27  22  82 W15       29.98R
MUSKEGON       LGT SNOW  31  24  75 NW14      29.98R
$$
MIZ016>042-251700-
NORTHERN LOWER MICHIGAN

CITY           SKY/WX    TMP DP  RH WIND       PRES   REMARKS
ALPENA         LGT SNOW  29  26  89 W12G20    29.79R FOG
BEAVER ISLAND  LGT SNOW  29  25  84 NW9       29.84R
BELLAIRE       SNOW      29  27  92 W5        29.86R VSB 1/4
CADILLAC       MIX PCPN  28  23  84 W13G18    29.85R
CHARLEVOIX     LGT SNOW  29  26  90 NW15G22   29.87R
FRANKFORT      LGT SNOW  29  27  91 NW15      29.90R
GAYLORD        LGT SNOW  26  22  84 W9        29.79R FOG
GRAYLING       LGT SNOW  28  25  87 W14G22    29.82R
HARBOR SPRINGS LGT SNOW  27  23  85 W7        29.82R
HOUGHTON LAKE  PTSUNNY   28  23  81 W10G22    29.84R
MANISTEE       CLOUDY    28  23  80 NW14      29.92R
OSCODA         CLOUDY    32  28  86 W18       29.81R
PELLSTON       LGT SNOW  27  25  92 NW8       29.82R VSB 1
TRAVERSE CITY  LGT SNOW  30  26  85 W10       29.87R FOG
$$
MIZ007>008-015-251700-
EASTERN UPPER MICHIGAN

CITY           SKY/WX    TMP DP  RH WIND       PRES   REMARKS
KINROSS        CLOUDY    25  23  93 N6        29.78R
MACKINAC ISLAN LGT SNOW  26  25  94 W13       29.80R
NEWBERRY       LGT SNOW  25  22  88 NW8       29.80
S. S. MARIE    LGT SNOW  23  18  81 NW8       29.77F
$$
MIZ004>006-011>014-085-251700-
CENTRAL UPPER MICHIGAN

CITY           SKY/WX    TMP DP  RH WIND       PRES   REMARKS
MANISTIQUE     LGT SNOW  27  24  89 W10       29.84R
ESCANABA       CLOUDY    25  18  74 W13       29.89R
MENOMINEE      CLOUDY    25  18  74 NW9       29.94R
SAWYER-GWINN   FLURRIES  23  16  74 NW14      29.85R
$$
MIZ001>003-009>011-084-251700-
WESTERN UPPER MICHIGAN

CITY           SKY/WX    TMP DP  RH WIND       PRES   REMARKS
IRON MOUNTAIN  CLOUDY    22  11  62 NW13      29.89R
HOUGHTON       FLURRIES  20  12  71 NW13      29.89R
COPPER HARBOR    N/A     25  17  72 N16       29.89R
IRONWOOD       CLOUDY    16  14  93 W12       29.93R
$$

ABBREVIATIONS USED IN REMARKS
   TC - TEMPERATURE IN CELSIUS
  WCI - WIND CHILL INDEX
   HX - HEAT INDEX
  VSB - VISIBILITY




USA.gov is the U.S. government's official web portal to all federal, state and local government web resources and services.